FLOCK 2K-18 (42887 NORAD) Tracking and Keplerian Element Data

This shows tracking and keplerian element data for the satellite.

Feedback or suggestion? Click here.




ElementValue
Catalog42887
NameFLOCK 2K-18
Epoch Orbit23481
Epoch Day261.65856781
Epoch Year2021
RAAN110.0957
Inclination96.8419
Eccentricity0.0011254
Argument of Perigee80.3546
Mean Anonmoly279.8976
Mean Motion15.47526424
Decay Rate0.00017504
L11 42887U 17042BQ 21261.65856781 .00017504 00000-0 34100-3 0 9999
L22 42887 96.8419 110.0957 0011254 80.3546 279.8976 15.47526424234816

Live tracking and technical data element details for FLOCK 2K-18 (NORAD 42887). FLOCK 2K-18 can be tracked NOW for your location showing map with azimuth and elevation plus other details from your city location.

Track the satellite on the map from your city or location and see movement details for azimuth, elevation, latitude, longitude, range, height, and movement on the map or in text.







IsCatalogInMostPopularTable: catalog: 42887, numindb: 522
Update: records affected: 1



GetName: 42887 FLOCK 2K-18

Hit Count: updated at: Sun, 26 Sep 2021 01:25:43 GMT